{"data":{"norad_id":54659,"intl_designator":"2022-166T","name":"ONEWEB-0593","alt_names":[],"object_type":"PAYLOAD","status":"ACTIVE","operator":null,"country":"UK","launch_date":"2022-12-08","launch_site_code":"AFETR","launch_vehicle":null,"mission":null,"orbit_class":"UNKNOWN","rcs_meters":null,"size_class":null,"mass_kg":null,"dimensions":null,"purposes":["comms"],"wikipedia_slug":null,"has_3d_model":false,"image_url":null,"decayed_at":null,"tle_current":{"epoch":"2026-09-20T04:22:36.692832Z","epoch_age_seconds":49491,"freshness":"FRESH","line1":"1 54659U 22166T   26263.18236913 -.00000038  00000+0 -12377-3 0  9993","line2":"2 54659  87.9286 225.0682 0002200  78.4324 281.7057 13.21825711184091","mean_motion":13.21825711,"eccentricity":0.00022,"inclination_deg":87.9286,"raan_deg":225.0682,"arg_perigee_deg":78.4324,"mean_anomaly_deg":281.7057,"bstar":-0.00012377,"rev_number":18409,"period_min":108.94023228755,"perigee_km":1176.0921735759,"apogee_km":1179.4167658226,"semimajor_km":7555.8914696993,"source":"CELESTRAK","updated_at":"2026-09-20T09:00:44.744616Z"}}}